Location: Mascot Post Office (historical)
(40.2645°N, 99.5462°W)
Time: 02:13:39
(UTC+00:00)

ERS-1 Rocket - Pass Details

Date: 14 July 2020
Orbit: 752 x 758 km, 98.5° (Epoch: 14 August)

Event Time Altitude Azimuth Distance (km) Brightness Sun altitude
Exits shadow 03:16:30 14° 112° (ESE) 2,023 4.6 -11.5°
Maximum altitude 03:19:39 25° 66° (ENE) 1,511 4.3 -12.0°
Drops below altitude 10° 03:23:41 10° 13° (NNE) 2,294 5.9 -12.5°
Sets 03:26:20 0° 0° (N) 3,222 6.9 -12.9°
